Weather History for KSWF - March, 2014

Change the Weather History Date:

Monday, March 24, 2014

  Actual Average Record
Temperature  
Mean Temperature 22 °F -  
Max Temperature 30 °F 48 °F 71 °F (1979)
Min Temperature 15 °F 30 °F 12 °F (1992)
Degree Days  
Heating Degree Days 42    
Moisture  
Dew Point 7 °F    
Average Humidity 51    
Maximum Humidity 73    
Minimum Humidity 37    
Precipitation  
Precipitation 0.00 in - - ()
Sea Level Pressure  
Sea Level Pressure 30.16 in    
Wind  
Wind Speed 12 mph (WNW)    
Max Wind Speed 17 mph    
Max Gust Speed 30 mph    
Visibility 16 miles    
Events      
Averages and records for this station are not official NWS values.
T = Trace of Precipitation, MM = Missing Value Source: NWS Daily Summary

Daily Weather History Graph

Daily Weather History Graph

Search for Another Location

Airport or City:

Trip Planner

Search our weather history database for the weather conditions in past years. The results will help you decide how hot, cold, wet, or windy it might be!

Date:

Astronomy

Mar. 24, 2014 Rise Set
Actual Time 6:52 AM EDT 7:12 PM EDT
Civil Twilight 6:25 AM EDT 7:40 PM EDT
Nautical Twilight 5:52 AM EDT 8:13 PM EDT
Astronomical Twilight 5:19 AM EDT 8:46 PM EDT
Moon 2:24 AM EDT (3/24) 12:31 PM EDT (3/24)
Length of Visible Light 13h 15m
Length of Day
12h 19m
Last Quarter, 43% of the Moon is Illuminated
Mar 24
Last Quarter
Mar 30
New
Apr 7
First Quarter
Apr 15
Full
Apr 22
Last Quarter

Hourly Weather History & Observations

Time (EDT) Temp. Windchill Dew Point Humidity Pressure Visibility Wind Dir Wind Speed Gust Speed Precip Events Conditions
12:45 AM 19.4 °F 4.5 °F 6.8 °F 58% 30.15 in 10.0 mi NW 17.3 mph - N/A   Clear
1:45 AM 19.4 °F 4.5 °F 6.8 °F 58% 30.17 in 10.0 mi WNW 17.3 mph - N/A   Clear
2:45 AM 17.6 °F 2.2 °F 5.0 °F 58% 30.17 in 10.0 mi WNW 17.3 mph - N/A   Clear
4:45 AM 17.6 °F 2.2 °F 5.0 °F 58% 30.18 in 10.0 mi WNW 17.3 mph - N/A   Clear
5:45 AM 15.8 °F 8.6 °F 3.2 °F 58% 30.18 in 10.0 mi WNW 4.6 mph - N/A   Clear
6:45 AM 15.8 °F 7.2 °F 6.8 °F 68% 30.19 in 20.0 mi West 5.8 mph - N/A   Scattered Clouds
7:45 AM 17.6 °F 9.3 °F 10.4 °F 73% 30.21 in 20.0 mi West 5.8 mph - N/A   Scattered Clouds
8:45 AM 21.2 °F 10.9 °F 8.6 °F 58% 30.21 in 20.0 mi WNW 9.2 mph - N/A   Partly Cloudy
10:45 AM 24.8 °F 17.9 °F 6.8 °F 46% 30.21 in 20.0 mi NNW 5.8 mph - N/A   Scattered Clouds
11:45 AM 24.8 °F 16.9 °F 6.8 °F 46% 30.20 in 20.0 mi West 6.9 mph - N/A   Mostly Cloudy
12:45 PM 26.6 °F 19.1 °F 6.8 °F 43% 30.17 in 20.0 mi NW 6.9 mph - N/A   Scattered Clouds
1:45 PM 30.2 °F 18.5 °F 8.6 °F 40% 30.15 in 20.0 mi WNW 17.3 mph 28.8 mph N/A   Scattered Clouds
2:45 PM 30.2 °F 20.8 °F 6.8 °F 37% 30.12 in 20.0 mi NNW 11.5 mph 29.9 mph N/A   Scattered Clouds
3:45 PM 30.2 °F 21.9 °F 6.8 °F 37% 30.10 in 20.0 mi NNW 9.2 mph 16.1 mph N/A   Scattered Clouds
4:45 PM 30.2 °F 19.8 °F 6.8 °F 37% 30.09 in 20.0 mi WNW 13.8 mph 23.0 mph N/A   Scattered Clouds
5:45 PM 30.2 °F 19.8 °F 8.6 °F 40% 30.10 in 20.0 mi WNW 13.8 mph 23.0 mph N/A   Scattered Clouds
6:45 PM 28.4 °F 17.5 °F 8.6 °F 43% 30.10 in 20.0 mi WNW 13.8 mph 23.0 mph N/A   Mostly Cloudy
7:45 PM 26.6 °F 15.2 °F 8.6 °F 47% 30.12 in 10.0 mi WNW 13.8 mph 23.0 mph N/A   Scattered Clouds
8:45 PM 24.8 °F 14.0 °F 8.6 °F 50% 30.15 in 10.0 mi WNW 11.5 mph - N/A   Clear
9:45 PM 23.0 °F 13.1 °F 8.6 °F 54% 30.16 in 10.0 mi WNW 9.2 mph - N/A   Clear
10:45 PM 23.0 °F 14.7 °F 8.6 °F 54% 30.16 in 10.0 mi WNW 6.9 mph - N/A   Clear
11:45 PM 23.0 °F 18.4 °F 6.8 °F 50% 30.16 in 10.0 mi WNW 3.5 mph - N/A   Clear